Location: Godiavel Galaoual
(15.2485°N, 12.6604°W)
Time: 14:30:41
(UTC+00:00)

YAOGAN 1 - Pass Details

Date: 27 February 2020
Orbit: 618 x 621 km, 97.9° (Epoch: 29 March)

Event Time Altitude Azimuth Distance (km) Brightness Sun altitude
Rises 19:13:07 0° 150° (SSE) 2,885 5.8 -4.5°
Reaches altitude 10° 19:15:27 10° 141° (SE) 1,980 4.9 -5.1°
Maximum altitude 19:19:21 34° 76° (ENE) 1,027 3.2 -6.0°
Drops below altitude 10° 19:23:14 10° 12° (NNE) 1,982 5.0 -6.9°
Sets 19:25:34 0° 2° (N) 2,888 5.9 -7.5°
